FW3814 Weather Reports


time (UTC)temp
F
wind
direction
speed
knots
gust
knots
rain 1hr
in
rain 24hr
in
rain mn
in
humidity
%
barometer
mb
20260903070005 74 5 0.9 3.5 0.00 0.00 0.00 53 1019.5
20260903065505 74 12 2.6 5.2 0.00 0.00 0.00 53 1019.4
20260903065005 73 15 3.5 5.2 0.00 0.00 0.00 53 1019.4
20260903064505 73 17 3.5 5.2 0.00 0.00 0.00 53 1019.4
20260903064005 73 15 3.5 3.5 0.00 0.00 0.00 54 1019.4
20260903063505 72 10 2.6 3.5 0.00 0.00 0.00 55 1019.4
20260903063026 72 2 2.6 3.5 0.00 0.00 0.00 60 1019.4
20260903062505 72 354 1.7 2.6 0.00 0.00 0.00 60 1019.4
20260903062005 72 355 1.7 2.6 0.00 0.00 0.00 60 1019.5
20260903061505 71 2 0.9 4.3 0.00 0.00 0.00 60 1019.4
20260903061005 71 357 1.7 4.3 0.00 0.00 0.00 60 1019.5
20260903060526 71 351 2.6 4.3 0.00 0.00 0.00 60 1019.3
20260903060005 71 354 2.6 4.3 0.00 0.00 0.00 60 1019.4
20260903055505 71 9 1.7 3.5 0.00 0.00 0.00 60 1019.1
20260903055026 71 4 0.9 3.5 0.00 0.00 0.00 59 1019.0
20260903054505 71 0 0.0 0.0 0.00 0.00 0.00 59 1019.0
20260903054005 71 0 0.0 0.0 0.00 0.00 0.00 59 1019.0
20260903053505 71 0 0.0 0.0 0.00 0.00 0.00 60 1019.0
20260903053005 71 29 1.7 5.2 0.00 0.00 0.00 60 1019.0
20260903052505 70 28 4.3 7.0 0.00 0.00 0.00 60 1018.9
20260903052005 70 24 6.1 7.0 0.00 0.00 0.00 60 1018.7
20260903051526 70 17 4.3 7.0 0.00 0.00 0.00 60 1018.9
20260903051005 69 12 2.6 6.1 0.00 0.00 0.00 60 1018.9
20260903050526 69 18 1.7 4.3 0.00 0.00 0.00 60 1018.8
20260903050005 69 18 1.7 6.1 0.00 0.00 0.00 60 1018.8
20260903045505 69 14 3.5 6.1 0.00 0.00 0.00 60 1018.7
20260903045005 69 11 3.5 6.1 0.00 0.00 0.00 60 1018.6
20260903044505 69 7 0.9 4.3 0.00 0.00 0.00 60 1018.5
20260903044005 69 360 0.0 1.7 0.00 0.00 0.00 60 1018.5
20260903043505 69 14 1.7 4.3 0.00 0.00 0.00 61 1018.4
20260903043005 69 12 4.3 5.2 0.00 0.00 0.00 61 1018.3
20260903042526 69 9 4.3 5.2 0.00 0.00 0.00 61 1018.5
20260903042005 69 6 2.6 4.3 0.00 0.00 0.00 61 1018.4
20260903041505 70 8 0.9 2.6 0.00 0.00 0.00 60 1018.3
20260903041005 70 22 0.0 1.7 0.00 0.00 0.00 60 1018.4
20260903040526 70 0 0.0 0.0 0.00 0.00 0.00 60 1018.1
20260903040008 70 0 0.0 0.0 0.00 0.00 0.00 60 1018.3
20260903035505 70 0 0.0 0.0 0.00 0.00 0.00 60 1018.1
20260903035026 69 0 0.0 0.0 0.00 0.00 0.00 60 1018.1
20260903034505 70 0 0.0 0.0 0.00 0.00 0.00 60 1018.1
20260903034005 70 0 0.0 0.0 0.00 0.00 0.00 60 1017.9
20260903033505 70 0 0.0 0.0 0.00 0.00 0.00 59 1017.9
20260903033005 71 16 0.0 3.5 0.00 0.00 0.00 58 1018.0
20260903032526 71 16 0.0 3.5 0.00 0.00 0.00 57 1018.1
20260903032005 72 7 1.7 7.0 0.00 0.00 0.00 57 1017.9
20260903031505 72 18 4.3 7.0 0.00 0.00 0.00 56 1017.7
20260903031005 72 23 6.1 9.6 0.00 0.00 0.00 56 1017.8
20260903030505 72 16 7.8 9.6 0.00 0.00 0.00 56 1017.7
20260903030005 72 10 7.0 7.8 0.00 0.00 0.00 56 1017.8
20260903025505 72 14 6.1 7.0 0.00 0.00 0.00 56 1017.7
20260903025026 72 17 5.2 7.0 0.00 0.00 0.00 57 1017.9
20260903024505 72 23 5.2 7.0 0.00 0.00 0.00 58 1017.8
20260903024005 72 35 4.3 7.0 0.00 0.00 0.00 59 1017.9
20260903023505 72 30 6.1 8.7 0.00 0.00 0.00 55 1017.9
20260903023005 72 38 7.0 9.6 0.00 0.00 0.00 55 1017.9
20260903022505 72 39 7.8 10.4 0.00 0.00 0.00 55 1017.7
20260903022005 72 22 7.8 10.4 0.00 0.00 0.00 56 1017.9
20260903021505 72 18 6.1 8.7 0.00 0.00 0.00 60 1017.9
20260903021004 72 25 7.0 8.7 0.00 0.00 0.00 61 1017.9
20260903020526 71 19 7.0 8.7 0.00 0.00 0.00 63 1017.9
20260903020005 71 6 3.5 6.1 0.00 0.00 0.00 63 1017.8
20260903015505 70 360 3.5 5.2 0.00 0.00 0.00 65 1017.8
20260903015026 70 4 3.5 5.2 0.00 0.00 0.00 65 1017.8
20260903014505 70 5 2.6 3.5 0.00 0.00 0.00 65 1017.9
20260903014026 70 4 2.6 3.5 0.00 0.00 0.00 65 1017.9
20260903013505 70 9 2.6 3.5 0.00 0.00 0.00 65 1017.9
20260903013005 70 357 2.6 3.5 0.00 0.00 0.00 64 1017.8
20260903012505 71 348 3.5 5.2 0.00 0.00 0.00 64 1017.7
20260903012005 71 355 2.6 5.2 0.00 0.00 0.00 63 1017.8
20260903011505 72 13 2.6 6.1 0.00 0.00 0.00 63 1017.9
20260903011005 72 21 4.3 6.1 0.00 0.00 0.00 63 1017.9
20260903010505 72 31 5.2 6.1 0.00 0.00 0.00 63 1017.8
20260903010026 72 26 4.3 6.1 0.00 0.00 0.00 63 1017.8
20260903005504 72 9 4.3 5.2 0.00 0.00 0.00 63 1017.8
20260903005005 72 19 6.1 7.0 0.00 0.00 0.00 63 1017.9
20260903004526 72 27 4.3 7.0 0.00 0.00 0.00 63 1017.9
20260903004005 72 26 4.3 7.0 0.00 0.00 0.00 63 1017.8
20260903003505 72 22 4.3 6.1 0.00 0.00 0.00 64 1017.8
20260903003026 72 33 3.5 6.1 0.00 0.00 0.00 64 1017.8
20260903002505 72 27 4.3 6.1 0.00 0.00 0.00 64 1017.7
20260903002005 72 17 4.3 7.0 0.00 0.00 0.00 64 1017.9
20260903001505 71 7 3.5 7.0 0.00 0.00 0.00 65 1017.8
20260903001026 71 237 2.6 3.5 0.00 0.00 0.00 65 1017.8
20260903000526 71 243 2.6 3.5 0.00 0.00 0.00 66 1017.8
20260903000026 71 5 2.6 3.5 0.00 0.00 0.00 66 1017.7
20260902235505 71 12 2.6 3.5 0.00 0.00 0.00 66 1017.8
20260902235005 71 9 1.7 3.5 0.00 0.00 0.00 65 1017.7
20260902234526 72 7 1.7 3.5 0.00 0.00 0.00 65 1017.8
20260902234005 72 6 1.7 2.6 0.00 0.00 0.00 64 1017.8
20260902233505 72 360 0.9 2.6 0.00 0.00 0.00 64 1017.8
20260902233005 72 360 0.9 2.6 0.00 0.00 0.00 64 1017.8
20260902232505 72 360 0.0 1.7 0.00 0.00 0.00 64 1017.7
20260902232005 72 360 0.9 1.7 0.00 0.00 0.00 64 1017.7
20260902231505 72 353 3.5 6.1 0.00 0.00 0.00 64 1017.7
20260902231003 72 355 2.6 6.1 0.00 0.00 0.00 61 1017.8
20260902230503 72 2 3.5 6.1 0.00 0.00 0.00 61 1017.6
20260902230004 72 8 4.3 6.1 0.00 0.00 0.00 62 1017.6
20260902225524 72 3 4.3 7.0 0.00 0.00 0.00 62 1017.7
20260902225024 72 5 3.5 7.0 0.00 0.00 0.00 62 1017.7
20260902224524 72 2 3.5 5.2 0.00 0.00 0.00 62 1017.7
20260902224003 72 360 3.5 5.2 0.00 0.00 0.00 62 1017.7
20260902223524 73 4 2.6 3.5 0.00 0.00 0.00 61 1017.7
20260902223003 73 7 2.6 3.5 0.00 0.00 0.00 61 1017.7
20260902222503 73 2 3.5 5.2 0.00 0.00 0.00 61 1017.7
20260902222003 73 7 4.3 5.2 0.00 0.00 0.00 61 1017.7
20260902221503 73 22 4.3 6.1 0.00 0.00 0.00 61 1017.8
20260902221003 73 20 3.5 6.1 0.00 0.00 0.00 61 1017.8
20260902220524 73 14 3.5 3.5 0.00 0.00 0.00 61 1017.8
20260902220003 73 359 2.6 6.1 0.00 0.00 0.00 61 1017.5
20260902215503 73 357 3.5 7.0 0.00 0.00 0.00 61 1017.8
20260902215003 73 9 4.3 7.0 0.00 0.00 0.00 61 1017.7
20260902214503 73 19 3.5 7.0 0.00 0.00 0.00 61 1017.6
20260902214003 74 19 3.5 4.3 0.00 0.00 0.00 61 1017.7
20260902213503 74 10 3.5 3.5 0.00 0.00 0.00 61 1017.6
20260902213003 74 10 2.6 3.5 0.00 0.00 0.00 62 1017.5
20260902212503 74 17 0.9 3.5 0.00 0.00 0.00 62 1017.7
20260902212024 74 22 0.0 1.7 0.00 0.00 0.00 62 1017.5
20260902211503 73 13 0.9 3.5 0.00 0.00 0.00 62 1017.6
20260902211003 74 13 0.9 3.5 0.00 0.00 0.00 61 1017.5
20260902210503 74 10 0.9 1.7 0.00 0.00 0.00 61 1017.5
20260902210024 75 12 1.7 3.5 0.00 0.00 0.00 61 1017.5
20260902205503 75 12 1.7 3.5 0.00 0.00 0.00 60 1017.4
20260902205003 75 12 0.9 2.6 0.00 0.00 0.00 61 1017.3
20260902204503 75 0 0.0 0.0 0.00 0.00 0.00 61 1017.3
20260902204003 75 0 0.0 0.0 0.00 0.00 0.00 61 1017.5
20260902203503 75 0 0.0 0.0 0.00 0.00 0.00 62 1017.3
20260902203003 75 0 0.0 0.0 0.00 0.00 0.00 62 1017.5
20260902202503 74 360 0.0 1.7 0.00 0.00 0.00 63 1017.1
20260902202004 74 5 0.9 3.5 0.00 0.00 0.00 63 1017.2
20260902201503 74 6 0.9 3.5 0.00 0.00 0.00 63 1017.4
20260902201003 74 360 0.0 1.7 0.00 0.00 0.00 63 1017.2
20260902200503 75 0 0.0 0.0 0.00 0.00 0.00 62 1017.3
20260902200003 75 0 0.0 0.0 0.00 0.00 0.00 62 1017.3
20260902195504 76 0 0.0 0.0 0.00 0.00 0.00 61 1017.1
20260902195003 76 0 0.0 0.0 0.00 0.00 0.00 61 1017.2
20260902194503 76 22 0.0 1.7 0.00 0.00 0.00 62 1016.9
20260902194003 76 22 0.0 1.7 0.00 0.00 0.00 62 1017.1
20260902193503 76 22 0.0 1.7 0.00 0.00 0.00 62 1017.0
20260902193003 76 0 0.0 0.0 0.00 0.00 0.00 62 1017.1
20260902192503 76 0 0.0 0.0 0.00 0.00 0.00 61 1017.1
20260902192024 76 0 0.0 0.0 0.00 0.00 0.00 61 1017.1
20260902191503 76 0 0.0 0.0 0.00 0.00 0.00 61 1017.0
20260902191024 76 0 0.0 0.0 0.00 0.00 0.00 61 1017.0
20260902190524 76 0 0.0 0.0 0.00 0.00 0.00 60 1016.9
20260902190004 76 0 0.0 0.0 0.00 0.00 0.00 60 1016.9
20260902185524 76 0 0.0 0.0 0.00 0.00 0.00 60 1016.8
20260902185003 76 0 0.0 0.0 0.00 0.00 0.00 60 1016.8
20260902184524 77 0 0.0 0.0 0.00 0.00 0.00 59 1016.7
20260902184003 77 0 0.0 0.0 0.00 0.00 0.00 59 1016.6
20260902183524 77 0 0.0 0.0 0.00 0.00 0.00 59 1016.7
20260902183024 77 0 0.0 0.0 0.00 0.00 0.00 59 1016.7
20260902182503 77 0 0.0 0.0 0.00 0.00 0.00 59 1016.5
20260902182004 77 0 0.0 0.0 0.00 0.00 0.00 58 1016.5
20260902181503 78 0 0.0 0.0 0.00 0.00 0.00 56 1016.6
20260902181024 78 0 0.0 0.0 0.00 0.00 0.00 56 1016.6
20260902180503 79 0 0.0 0.0 0.00 0.00 0.00 55 1016.6
20260902180006 79 0 0.0 0.0 0.00 0.00 0.00 55 1016.4
20260902175503 79 0 0.0 0.0 0.00 0.00 0.00 55 1016.5
20260902175003 80 0 0.0 0.0 0.00 0.00 0.00 55 1016.5
20260902174524 80 0 0.0 0.0 0.00 0.00 0.00 54 1016.4
20260902174003 81 0 0.0 0.0 0.00 0.00 0.00 54 1016.2
20260902173524 81 0 0.0 0.0 0.00 0.00 0.00 53 1016.3
20260902173024 82 0 0.0 0.0 0.00 0.00 0.00 50 1016.3
20260902172503 83 0 0.0 0.0 0.00 0.00 0.00 48 1016.3
20260902172004 83 0 0.0 0.0 0.00 0.00 0.00 46 1016.3
20260902171503 84 0 0.0 0.0 0.00 0.00 0.00 45 1016.4
20260902171003 85 0 0.0 0.0 0.00 0.00 0.00 45 1016.4
20260902170503 85 0 0.0 0.0 0.00 0.00 0.00 44 1016.5
20260902170003 85 0 0.0 0.0 0.00 0.00 0.00 44 1016.4
20260902165503 85 0 0.0 0.0 0.00 0.00 0.00 44 1016.3
20260902165003 85 0 0.0 0.0 0.00 0.00 0.00 44 1016.4
20260902164503 85 0 0.0 0.0 0.00 0.00 0.00 43 1016.4
20260902164024 85 315 0.0 1.7 0.00 0.00 0.00 44 1016.3
20260902163503 85 315 0.0 1.7 0.00 0.00 0.00 44 1016.4
20260902163003 85 292 0.9 2.6 0.00 0.00 0.00 44 1016.3
20260902162504 85 278 0.9 3.5 0.00 0.00 0.00 44 1016.2
20260902162024 85 280 0.9 3.5 0.00 0.00 0.00 44 1016.4
20260902161503 86 315 0.0 1.7 0.00 0.00 0.00 45 1016.2
20260902161024 86 315 0.0 1.7 0.00 0.00 0.00 45 1016.3
20260902160503 85 0 0.0 0.0 0.00 0.00 0.00 44 1016.4
20260902160005 85 360 0.0 1.7 0.00 0.00 0.00 44 1016.3
20260902155503 85 329 0.9 2.6 0.00 0.00 0.00 45 1016.4
20260902155003 86 310 0.0 2.6 0.00 0.00 0.00 45 1016.5
20260902154524 85 298 1.7 4.3 0.00 0.00 0.00 44 1016.5
20260902154003 85 304 2.6 4.3 0.00 0.00 0.00 43 1016.6
20260902153503 85 306 0.9 3.5 0.00 0.00 0.00 43 1016.6
20260902153003 85 267 0.0 1.7 0.00 0.00 0.00 43 1016.8
20260902152524 85 0 0.0 0.0 0.00 0.00 0.00 44 1016.6
20260902152003 84 0 0.0 0.0 0.00 0.00 0.00 44 1016.7
20260902151503 85 0 0.0 0.0 0.00 0.00 0.00 43 1016.9
20260902151024 85 0 0.0 0.0 0.00 0.00 0.00 43 1016.6
20260902150503 86 315 0.0 1.7 0.00 0.00 0.00 44 1016.7
20260902150003 86 297 0.9 6.1 0.00 0.00 0.00 44 1016.9
20260902145503 85 295 0.9 6.1 0.00 0.00 0.00 43 1016.9
20260902145003 85 315 0.9 3.5 0.00 0.00 0.00 43 1017.0
20260902144503 85 315 2.6 3.5 0.00 0.00 0.00 43 1017.0
20260902144003 86 315 1.7 3.5 0.00 0.00 0.00 43 1017.0
20260902143503 87 0 0.0 0.0 0.00 0.00 0.00 43 1016.9
20260902143003 87 0 0.0 0.0 0.00 0.00 0.00 43 1017.0
20260902142503 87 247 0.0 0.9 0.00 0.00 0.00 43 1017.0
20260902142003 87 294 0.0 0.9 0.00 0.00 0.00 42 1017.0
20260902141524 87 278 0.9 5.2 0.00 0.00 0.00 43 1016.9
20260902141003 87 308 3.5 5.2 0.00 0.00 0.00 43 1017.1
20260902140503 87 315 3.5 5.2 0.00 0.00 0.00 44 1017.0
20260902140003 87 311 0.9 5.2 0.00 0.00 0.00 44 1017.2
20260902135503 87 311 0.9 3.5 0.00 0.00 0.00 44 1017.3
20260902135003 87 290 2.6 6.1 0.00 0.00 0.00 44 1017.1
20260902134503 87 282 1.7 6.1 0.00 0.00 0.00 44 1017.4
20260902134003 87 315 0.0 1.7 0.00 0.00 0.00 45 1017.1
20260902133524 86 315 0.9 6.1 0.00 0.00 0.00 44 1017.2
20260902133003 86 315 1.7 6.1 0.00 0.00 0.00 44 1017.3
20260902132503 87 271 2.6 5.2 0.00 0.00 0.00 44 1017.2
20260902132003 86 269 3.5 6.1 0.00 0.00 0.00 44 1017.3
20260902131503 86 274 3.5 6.1 0.00 0.00 0.00 44 1017.3
20260902131003 87 283 2.6 6.1 0.00 0.00 0.00 44 1017.4
20260902130503 87 305 0.9 0.9 0.00 0.00 0.00 46 1017.5
20260902130003 87 249 1.7 5.2 0.00 0.00 0.00 46 1017.5
20260902125524 86 247 1.7 5.2 0.00 0.00 0.00 46 1017.6
20260902125024 86 226 0.9 5.2 0.00 0.00 0.00 47 1017.8
20260902124524 86 233 1.7 5.2 0.00 0.00 0.00 47 1017.8
20260902124003 86 270 0.9 4.3 0.00 0.00 0.00 46 1017.7
20260902123503 86 245 0.9 2.6 0.00 0.00 0.00 47 1017.9
20260902123003 86 133 0.9 2.6 0.00 0.00 0.00 48 1017.8
20260902122503 85 360 0.0 1.7 0.00 0.00 0.00 50 1017.9
20260902122003 85 10 0.9 5.2 0.00 0.00 0.00 50 1017.9
20260902121503 85 14 0.9 5.2 0.00 0.00 0.00 50 1018.0
20260902121003 85 0 0.0 0.0 0.00 0.00 0.00 50 1017.9
20260902120503 84 0 0.0 0.0 0.00 0.00 0.00 50 1018.0
20260902120003 84 0 0.0 0.0 0.00 0.00 0.00 50 1018.3
20260902115524 84 0 0.0 0.0 0.00 0.00 0.00 50 1018.3
20260902115003 84 0 0.0 0.0 0.00 0.00 0.00 50 1018.5
20260902114505 84 247 0.0 1.7 0.00 0.00 0.00 50 1018.3
20260902114005 85 227 0.9 3.5 0.00 0.00 0.00 50 1018.4
20260902113505 85 195 0.9 3.5 0.00 0.00 0.00 50 1018.5
20260902113026 85 91 0.9 3.5 0.00 0.00 0.00 51 1018.6
20260902112505 85 174 0.9 4.3 0.00 0.00 0.00 51 1018.6
20260902112005 84 244 1.7 4.3 0.00 0.00 0.00 51 1018.6
20260902111505 84 294 1.7 4.3 0.00 0.00 0.00 51 1018.7
20260902111005 83 313 2.6 4.3 0.00 0.04 0.00 52 1018.7
20260902110505 83 299 2.6 4.3 0.00 0.05 0.00 52 1018.8
20260902110007 83 258 0.9 4.3 0.00 0.05 0.00 52 1018.9
20260902105505 84 224 0.0 0.9 0.00 0.05 0.00 53 1019.0
20260902105005 83 0 0.0 0.0 0.00 0.05 0.00 54 1019.0
20260902104505 82 0 0.0 0.0 0.00 0.05 0.00 54 1019.0
20260902104005 82 54 0.9 2.6 0.00 0.28 0.00 54 1019.0
20260902103505 81 37 0.9 2.6 0.00 0.33 0.00 58 1019.0
20260902103005 81 32 0.9 2.6 0.00 0.69 0.00 58 1019.1
20260902102505 82 3 0.0 1.7 0.00 0.83 0.00 55 1019.0
20260902102005 81 315 0.0 1.7 0.00 0.83 0.00 59 1019.1
20260902101505 81 0 0.0 0.0 0.00 0.83 0.00 59 1019.0
20260902101005 81 0 0.0 0.0 0.00 0.83 0.00 59 1019.1
20260902100505 81 0 0.0 0.0 0.00 0.83 0.00 59 1019.2
20260902100005 81 178 0.9 4.3 0.00 0.83 0.00 59 1019.3
20260902095505 81 180 0.9 4.3 0.00 0.83 0.00 59 1019.1
20260902095005 82 170 0.9 4.3 0.00 0.83 0.00 55 1019.2
20260902094505 81 0 0.0 0.0 0.00 0.83 0.00 60 1019.4
20260902094005 80 0 0.0 0.0 0.00 0.83 0.00 61 1019.4
20260902093505 80 315 0.0 0.9 0.00 0.83 0.00 61 1019.5
20260902093005 80 315 0.9 1.7 0.00 0.83 0.00 61 1019.3
20260902092505 80 267 0.9 3.5 0.00 0.83 0.00 60 1019.4
20260902092005 80 202 0.0 3.5 0.00 0.83 0.00 60 1019.5
20260902091526 81 202 0.0 3.5 0.00 0.83 0.00 61 1019.4
20260902091005 81 0 0.0 0.0 0.00 0.83 0.00 61 1019.5
20260902090505 80 0 0.0 0.0 0.00 0.83 0.00 61 1019.5
20260902090005 80 179 0.9 5.2 0.00 0.83 0.00 61 1019.5
20260902085505 79 146 2.6 5.2 0.00 0.83 0.00 60 1019.5
20260902085005 80 120 1.7 5.2 0.00 0.83 0.00 61 1019.4
20260902084505 80 157 0.9 3.5 0.00 0.83 0.00 62 1019.3
20260902084005 79 154 0.9 3.5 0.00 0.83 0.00 62 1019.3
20260902083526 79 112 0.0 1.7 0.00 0.83 0.00 62 1019.3
20260902083005 78 176 0.0 2.6 0.00 0.84 0.00 63 1019.2
20260902082505 78 152 0.9 3.5 0.00 0.84 0.00 62 1019.2
20260902082005 78 135 0.9 3.5 0.00 0.84 0.00 62 1019.2
20260902081505 78 0 0.0 0.0 0.00 0.84 0.00 64 1019.3
20260902081005 78 0 0.0 0.0 0.00 0.84 0.00 65 1019.3
20260902080505 77 0 0.0 0.0 0.00 0.84 0.00 66 1019.3
20260902080005 77 0 0.0 0.0 0.00 0.84 0.00 66 1019.1
20260902075505 77 0 0.0 0.0 0.00 0.84 0.00 69 1019.2
20260902075026 77 67 0.0 0.9 0.00 0.84 0.00 69 1019.2
20260902074505 76 30 0.9 3.5 0.00 0.84 0.00 69 1019.1
20260902074005 75 28 0.9 3.5 0.00 0.84 0.00 68 1019.0
20260902073505 75 11 0.9 3.5 0.00 0.84 0.00 68 1019.2
20260902073005 74 12 1.7 3.5 0.00 0.84 0.00 68 1019.2
20260902072505 74 16 0.9 3.5 0.00 0.84 0.00 68 1019.1
20260902072005 75 22 0.0 3.5 0.00 0.84 0.00 69 1019.2
20260902071505 75 51 0.9 3.5 0.00 0.84 0.00 69 1019.2
20260902071026 75 29 1.7 3.5 0.00 0.84 0.00 69 1019.0
20260902070505 76 27 1.7 3.5 0.00 0.84 0.00 69 1019.1